This demonstration page uses our WeatherBlox Daily Observations layout. Learn more.

Left ArrowRight Arrow

31.31129, -92.44514

Hourly Observations for August 28, 2016

Temp ( °F °C ) Dew Point ( °F °C ) Humidity (%) Winds ( mph kmh ) Pressure ( in mb ) Visibility ( mi km ) Precip ( " mm )
12:53 am 00:53 Mostly Cloudy 73 22.8 73 22.8 100 100 E 3 6 29.99 1016 9 14 0.00 0.00
1:53 am 01:53 Mostly Cloudy 74 23.3 73 22.8 97 97 Calm 29.98 1015 9 14 0.00 0.00
2:53 am 02:53 Clear with Mist and Fog 73 22.8 73 22.8 100 100 N 3 6 29.98 1015 5 8 0.00 0.00
3:14 am 03:14 Partly Cloudy with Mist and Fog 72 22.2 72 22.2 100 100 NW 3 6 29.97 1015 5 8 0.00 0.00
3:23 am 03:23 Mostly Cloudy with Mist and Fog 73 22.8 73 22.8 100 100 NNW 3 6 29.97 1015 5 8 0.00 0.00
3:53 am 03:53 Cloudy with Mist and Fog 73 22.8 73 22.8 100 100 Calm 29.98 1015 6 10 0.00 0.00
4:53 am 04:53 Cloudy with Mist and Fog 73 22.8 72 22.2 96 96 Calm 29.98 1015 5 8 0.00 0.00
5:11 am 05:11 Cloudy with Mist and Fog 73 22.8 73 22.8 100 100 Calm 29.97 1015 2 3 0.00 0.00
5:19 am 05:19 Cloudy with Mist and Fog 73 22.8 73 22.8 100 100 Calm 29.97 1015 1 2 0.00 0.00
5:32 am 05:32 Mostly Cloudy with Mist and Fog 73 22.8 73 22.8 100 100 Calm 29.97 1015 1 1 0.00 0.00
5:53 am 05:53 Mostly Cloudy with Fog 73 22.8 73 22.8 100 100 Calm 29.98 1015 1 1 0.00 0.00
6:53 am 06:53 Cloudy with Mist and Fog 73 22.8 73 22.8 100 100 Calm 30.00 1016 1 2 0.00 0.00
7:18 am 07:18 Mostly Cloudy with Fog 73 22.8 73 22.8 100 100 Calm 30.00 1016 0 0 0.00 0.00
7:34 am 07:34 Mostly Cloudy with Mist and Fog 73 22.8 73 22.8 100 100 NNE 3 6 30.00 1016 1 1 0.00 0.00
7:42 am 07:42 Cloudy with Mist and Fog 73 22.8 73 22.8 100 100 NE 3 6 30.00 1016 2 3 0.00 0.00
7:53 am 07:53 Mostly Cloudy with Mist and Fog 73 22.8 73 22.8 100 100 NE 3 6 30.01 1016 4 6 0.00 0.00
8:13 am 08:13 Partly Cloudy 74 23.3 74 23.3 100 100 NE 5 7 30.00 1016 7 11 0.00 0.00
8:53 am 08:53 Sunny 79 26.1 76 24.4 90 90 NE 5 7 30.02 1017 9 14 0.00 0.00
9:53 am 09:53 Mostly Sunny 82 27.8 76 24.4 82 82 ENE 6 9 30.04 1017 10 16 0.00 0.00
10:53 am 10:53 Partly Cloudy 85 29.4 77 25 77 77 NNE 8 13 30.03 1017 10 16 0.00 0.00
11:53 am 11:53 Partly Cloudy 88 31.1 76 24.4 68 68 E 8 13 30.03 1017 10 16 0.00 0.00
12:53 pm 12:53 Partly Cloudy 87 30.6 74 23.3 65 65 ENE 7 11 30.01 1016 10 16 0.00 0.00
1:53 pm 13:53 Mostly Cloudy 85 29.4 75 23.9 72 72 ENE 6 9 29.99 1016 10 16 0.00 0.03
2:53 pm 14:53 Mostly Sunny 91 32.8 73 22.8 56 56 E 8 13 29.95 1014 10 16 0.00 0.00
3:53 pm 15:53 Partly Cloudy 89 31.7 71 21.7 55 55 E 8 13 29.94 1014 10 16 0.00 0.00
4:53 pm 16:53 Partly Cloudy 89 31.7 71 21.7 55 55 E 9 15 29.95 1014 10 16 0.00 0.00
5:53 pm 17:53 Sunny 86 30 75 23.9 70 70 NE 5 7 29.94 1014 10 16 0.00 0.00
6:53 pm 18:53 Sunny 84 28.9 76 24.4 77 77 ENE 3 6 29.94 1014 10 16 0.00 0.00
7:53 pm 19:53 Clear 80 26.7 69 20.6 69 69 ESE 8 13 29.96 1015 10 16 0.00 0.00
8:53 pm 20:53 Partly Cloudy 79 26.1 70 21.1 74 74 E 9 15 29.98 1015 10 16 0.00 0.00
9:53 pm 21:53 Clear 77 25 70 21.1 79 79 ESE 8 13 29.98 1015 10 16 0.00 0.00
10:53 pm 22:53 Clear 76 24.4 71 21.7 85 85 ENE 5 7 29.99 1016 10 16 0.00 0.00
11:53 pm 23:53 Clear 75 23.9 72 22.2 90 90 E 3 6 30.00 1016 10 16 0.00 0.00

Powered by AerisWeather